Location: Anumalkud?ru
(16.4847°N, 80.6636°E)
Time: 09:30:10
(UTC+00:00)

Cosmos 1666 Rocket - Pass Details

Date: 11 April 2026
Orbit: 598 x 624 km, 82.5° (Epoch: 12 May)

Event Time Altitude Azimuth Distance (km) Brightness Sun altitude
Rises 13:48:23 0° 191° (S) 2,836 6.9 -14.1°
Reaches altitude 10° 13:50:37 10° 195° (SSW) 1,933 6.1 -14.6°
Maximum altitude 13:54:50 60° 275° (W) 682 4.0 -15.6°
Drops below altitude 10° 13:59:02 10° 356° (N) 1,931 6.3 -16.6°
Sets 14:01:16 0° 359° (N) 2,834 7.2 -17.1°
